FLOCK 3R-5 (43726 NORAD) Tracking and Keplerian Element Data

This shows tracking and keplerian element data for the satellite.

Feedback or suggestion? Click here.




ElementValue
Catalog43726
NameFLOCK 3R-5
Epoch Orbit457
Epoch Day363.20855888
Epoch Year2018
RAAN68.2306
Inclination97.4814
Eccentricity0.0017579
Argument of Perigee215.2302
Mean Anonmoly230.3101
Mean Motion15.26085225
Decay Rate6.75E-06
L11 43726U 18096H 18363.20855888 .00000675 00000-0 28989-4 0 9999
L22 43726 97.4814 68.2306 0017579 215.2302 230.3101 15.26085225 4578

Live tracking and technical data element details for FLOCK 3R-5 (NORAD 43726). FLOCK 3R-5 can be tracked NOW for your location showing map with azimuth and elevation plus other details from your city location.

Track the satellite on the map from your city or location and see movement details for azimuth, elevation, latitude, longitude, range, height, and movement on the map or in text.







IsCatalogInMostPopularTable: catalog: 43726, numindb: 102
Update: records affected: 1



GetName: 43726 FLOCK 3R-5

Hit Count: updated at: Fri, 19 Jul 2019 23:55:01 GMT